Overview Statistics Trail Chart Weather Telemetry Raw packets
 

This is the latest recevied weather packets stored in our database for station/object W6MAF. If no packets are shown the sender has not sent any weather packets the latest 10 day(s).

<< 76 77 78 79 80 81 82 >>
Time Temp. Humidity Pressure Rain* Wind** Luminosity Snow
1788116715 31.11° C 6% - 0 mm 5.81 m/s, 203° - -
1788116417 30.56° C 5% - 0 mm 3.13 m/s, 222° - -
1788116119 30.56° C 7% - 0 mm 4.47 m/s, 238° - -
1788115821 30.56° C 7% - 0 mm 4.92 m/s, 219° - -
1788115525 30.56° C 7% - 0 mm 3.58 m/s, 205° - -
1788115524 30.56° C 7% - 0 mm 3.58 m/s, 205° - -
1788115226 30° C 8% - 0 mm 4.47 m/s, 233° - -
1788114926 30° C 8% - 0 mm 4.92 m/s, 198° - -
1788114630 30° C 8% - 0 mm 4.47 m/s, 238° - -
1788114330 30° C 8% - 0 mm 4.92 m/s, 229° - -
1788114032 30° C 9% - 0 mm 4.47 m/s, 248° - -
1788113734 29.44° C 7% - 0 mm 4.02 m/s, 222° - -
1788113437 29.44° C 9% - 0 mm 4.92 m/s, 253° - -
1788113136 29.44° C 10% - 0 mm 4.47 m/s, 249° - -
1788112838 28.89° C 10% - 0 mm 4.47 m/s, 232° - -
1788112540 28.89° C 10% - 0 mm 5.36 m/s, 228° - -
1788112243 28.89° C 11% - 0 mm 4.92 m/s, 243° - -
1788111945 28.89° C 11% - 0 mm 5.36 m/s, 233° - -
1788111647 28.33° C 11% - 0 mm 6.26 m/s, 232° - -
1788111346 28.33° C 11% - 0 mm 4.92 m/s, 211° - -
1788111049 28.33° C 12% - 0 mm 4.92 m/s, 232° - -
1788110751 28.33° C 12% - 0 mm 4.92 m/s, 222° - -
1788110453 27.78° C 12% - 0 mm 4.92 m/s, 231° - -
1788110156 27.78° C 13% - 0 mm 4.02 m/s, 214° - -
1788109858 27.22° C 13% - 0 mm 4.92 m/s, 240° - -

* Rain latest hour (hover to see other rain measurements)
** Current wind speed in m/s (hover to see current wind gust speed)